Two Harbors, MN

8:38 AM CDT on May 24, 2017 (GMT -0500)
Helgeson

Weather History for KTWM - April, 2013

Change the Weather History Date:

Saturday, April 6, 2013

  Actual Average Record
Temperature  
Mean Temperature 30 °F -  
Max Temperature 33 °F 45 °F 66 °F (1991)
Min Temperature 26 °F 27 °F 5 °F (1979)
Degree Days  
Heating Degree Days 36    
Moisture  
Dew Point 26 °F    
Average Humidity 83    
Maximum Humidity 87    
Minimum Humidity 80    
Precipitation  
Precipitation 0.74 in - - ()
Sea Level Pressure  
Sea Level Pressure 29.73 in    
Wind  
Wind Speed 8 mph (ENE)    
Max Wind Speed 16 mph    
Max Gust Speed 21 mph    
Visibility 4 miles    
Events Rain , Snow    
Averages and records for this station are not official NWS values.
T = Trace of Precipitation, MM = Missing Value Source: NWS Daily Summary

Daily Weather History Graph

Daily Weather History Graph

Search for Another Location

Airport or City:

Trip Planner

Search our weather history database for the weather conditions in past years. The results will help you decide how hot, cold, wet, or windy it might be!

Date:

Astronomy

Apr. 06, 2013 Rise Set
Actual Time 6:35 AM CDT 7:43 PM CDT
Civil Twilight 6:04 AM CDT 8:14 PM CDT
Nautical Twilight 5:27 AM CDT 8:52 PM CDT
Astronomical Twilight 4:47 AM CDT 9:32 PM CDT
Moon 4:33 AM CDT (4/6) 4:00 PM CDT (4/6)
Length of Visible Light 14h 10m
Length of Day
13h 07m
Waning Crescent, 15% of the Moon is Illuminated
Apr 6
Waning Crescent
Apr 10
New
Apr 18
First Quarter
Apr 25
Full
May 2
Last Quarter

Hourly Weather History & Observations

Time (CDT) Temp. Windchill Dew Point Humidity Pressure Visibility Wind Dir Wind Speed Gust Speed Precip Events Conditions
12:11 AM 26.6 °F 18.2 °F 21.2 °F 80% 30.02 in 1.5 mi East 8.1 mph - N/A Snow Light Snow
12:31 AM 26.6 °F 19.1 °F 21.2 °F 80% 30.02 in 0.8 mi ENE 6.9 mph - N/A Snow Snow
12:52 AM 26.6 °F 17.5 °F 21.2 °F 80% 30.00 in 1.0 mi ENE 9.2 mph - 0.01 in Snow Snow
1:11 AM 26.6 °F 17.5 °F 21.2 °F 80% 29.99 in 2.0 mi East 9.2 mph - N/A Snow Light Snow
1:31 AM 26.6 °F 18.2 °F 21.2 °F 80% 29.98 in 7.0 mi ENE 8.1 mph - N/A Snow Light Snow
1:52 AM 26.6 °F 19.1 °F 21.2 °F 80% 29.98 in 3.0 mi ENE 6.9 mph - 0.02 in Snow Light Snow
2:11 AM 26.6 °F 18.2 °F 21.2 °F 80% 29.96 in 5.0 mi ENE 8.1 mph - N/A Snow Light Snow
2:31 AM 26.6 °F 18.2 °F 21.2 °F 80% 29.95 in 4.0 mi ENE 8.1 mph - N/A Snow Light Snow
2:52 AM 26.6 °F 17.5 °F 21.2 °F 80% 29.93 in 7.0 mi NE 9.2 mph - N/A   Overcast
3:11 AM 26.6 °F 16.8 °F 21.2 °F 80% 29.92 in 5.0 mi ENE 10.4 mph - 0.01 in Snow Light Snow
3:31 AM 26.6 °F 18.2 °F 21.2 °F 80% 29.90 in 7.0 mi ENE 8.1 mph - 0.01 in   Overcast
3:51 AM 28.4 °F 19.1 °F 23.0 °F 80% 29.89 in 7.0 mi NE 10.4 mph - 0.02 in Snow Light Snow
4:11 AM 28.4 °F 17.5 °F 23.0 °F 80% 29.88 in 2.5 mi ENE 13.8 mph 17.3 mph N/A Snow Light Snow
4:31 AM 28.4 °F 18.0 °F 23.0 °F 80% 29.86 in 3.0 mi ENE 12.7 mph - N/A Snow Light Snow
4:51 AM 28.4 °F 17.0 °F 24.8 °F 86% 29.85 in 2.5 mi ENE 15.0 mph 18.4 mph N/A Snow Light Snow
5:11 AM 28.4 °F 18.5 °F 24.8 °F 86% 29.85 in 5.0 mi ENE 11.5 mph - N/A Snow Light Snow
5:31 AM 28.4 °F 19.1 °F 24.8 °F 86% 29.86 in 5.0 mi East 10.4 mph - 0.01 in   Overcast
5:51 AM 30.2 °F 20.2 °F 24.8 °F 80% 29.84 in 2.0 mi ENE 12.7 mph - 0.01 in Snow Light Snow
6:11 AM 30.2 °F 19.8 °F 24.8 °F 80% 29.83 in 1.5 mi East 13.8 mph - N/A Snow Light Snow
6:31 AM 30.2 °F 20.2 °F 24.8 °F 80% 29.82 in 3.0 mi East 12.7 mph - 0.02 in Snow Light Snow
6:51 AM 30.2 °F 20.2 °F 24.8 °F 80% 29.81 in 3.0 mi East 12.7 mph 16.1 mph 0.02 in Snow Light Snow
7:11 AM 30.2 °F 20.2 °F 24.8 °F 80% 29.80 in 1.2 mi East 12.7 mph - N/A Snow Light Snow
7:32 AM 30.2 °F 19.3 °F 26.6 °F 86% 29.79 in 2.0 mi East 15.0 mph - N/A   Overcast
7:51 AM 30.2 °F 20.2 °F 26.6 °F 86% 29.78 in 1.2 mi East 12.7 mph - N/A   Light Freezing Rain
8:11 AM 30.2 °F 19.3 °F 26.6 °F 86% 29.78 in 3.0 mi East 15.0 mph - N/A   Haze
8:32 AM 30.2 °F 19.3 °F 26.6 °F 86% 29.77 in 4.0 mi East 15.0 mph 20.7 mph N/A   Light Freezing Rain
8:51 AM 30.2 °F 19.8 °F 26.6 °F 86% 29.76 in 4.0 mi East 13.8 mph 20.7 mph N/A   Light Freezing Rain
9:11 AM 30.2 °F 19.3 °F 26.6 °F 86% 29.74 in 4.0 mi East 15.0 mph - N/A   Light Freezing Rain
9:32 AM 30.2 °F 18.9 °F 26.6 °F 86% 29.73 in 3.0 mi East 16.1 mph 19.6 mph 0.01 in Rain Light Freezing Rain
9:51 AM 30.2 °F 19.8 °F 26.6 °F 86% 29.72 in 3.0 mi East 13.8 mph 18.4 mph 0.01 in   Light Freezing Rain
10:11 AM 30.2 °F 20.2 °F 26.6 °F 86% 29.71 in 3.0 mi East 12.7 mph - N/A Rain Light Freezing Rain
10:32 AM 30.2 °F 19.8 °F 26.6 °F 86% 29.71 in 4.0 mi East 13.8 mph - 0.01 in Rain Light Freezing Rain
10:51 AM 30.2 °F 20.2 °F 26.6 °F 86% 29.70 in 2.5 mi ENE 12.7 mph - 0.02 in Rain Light Freezing Rain
11:11 AM 30.2 °F 20.8 °F 26.6 °F 86% 29.70 in 2.0 mi ENE 11.5 mph - 0.02 in Rain Light Freezing Rain
11:32 AM 30.2 °F 21.9 °F 26.6 °F 86% 29.69 in 2.5 mi ENE 9.2 mph - 0.04 in   Overcast
11:51 AM 30.2 °F 21.9 °F 26.6 °F 86% 29.68 in 3.0 mi ENE 9.2 mph - 0.05 in   Overcast
12:11 PM 30.2 °F 21.9 °F 26.6 °F 86% 29.66 in 2.0 mi East 9.2 mph - 0.01 in Snow Light Snow
12:32 PM 30.2 °F 20.8 °F 26.6 °F 86% 29.65 in 5.0 mi East 11.5 mph - 0.02 in   Haze
12:51 PM 30.2 °F 20.8 °F 26.6 °F 86% 29.64 in 1.0 mi East 11.5 mph - 0.03 in Snow Light Snow
1:11 PM 30.2 °F 20.8 °F 26.6 °F 86% 29.64 in 0.8 mi ENE 11.5 mph - 0.01 in Snow Light Snow
1:32 PM 30.2 °F 21.9 °F 26.6 °F 86% 29.63 in 0.8 mi East 9.2 mph - 0.02 in Snow Light Snow
1:51 PM 30.2 °F 23.4 °F 26.6 °F 86% 29.63 in 0.2 mi ENE 6.9 mph - 0.03 in Snow Heavy Snow
2:11 PM 30.2 °F 23.4 °F 26.6 °F 86% 29.62 in 0.2 mi ENE 6.9 mph - 0.04 in Snow Heavy Snow
2:31 PM 30.2 °F 23.4 °F 26.6 °F 86% 29.61 in 0.2 mi ENE 6.9 mph - 0.06 in Snow Heavy Snow
2:51 PM 30.2 °F 23.4 °F 26.6 °F 86% 29.60 in 0.2 mi ENE 6.9 mph - 0.09 in Snow Snow
3:11 PM 30.2 °F 24.3 °F 26.6 °F 86% 29.60 in 0.8 mi ENE 5.8 mph - 0.02 in Snow Light Snow
3:31 PM 30.2 °F 25.4 °F 26.6 °F 86% 29.60 in 0.5 mi ENE 4.6 mph - 0.09 in Snow Snow
3:52 PM 30.2 °F 26.7 °F 26.6 °F 86% 29.59 in 0.2 mi ENE 3.5 mph - 0.14 in Snow Heavy Snow
4:11 PM 30.2 °F - 26.6 °F 86% 29.59 in 0.2 mi Calm Calm - 0.04 in Snow Snow
4:31 PM 30.2 °F - 26.6 °F 86% 29.58 in 0.5 mi Calm Calm - 0.08 in Snow Snow
4:52 PM 30.2 °F - 26.6 °F 86% 29.59 in 0.2 mi Calm Calm - 0.11 in Snow Snow
5:11 PM 30.2 °F - 26.6 °F 86% 29.59 in 0.5 mi Calm Calm - 0.06 in Snow Snow
5:31 PM 30.2 °F - 26.6 °F 86% 29.60 in 0.5 mi Calm Calm - 0.12 in Snow Snow
5:51 PM 30.2 °F - 26.6 °F 86% 29.60 in 0.5 mi Calm Calm - 0.16 in Snow Snow
6:11 PM 30.2 °F - 26.6 °F 86% 29.60 in 0.8 mi Calm Calm - 0.01 in Snow Light Snow
6:31 PM 32.0 °F - 26.6 °F 80% 29.61 in 2.0 mi Calm Calm - 0.02 in   Overcast
6:51 PM 32.0 °F - 26.6 °F 80% 29.61 in 10.0 mi Calm Calm - 0.02 in   Light Drizzle
7:11 PM 32.0 °F - 26.6 °F 80% 29.60 in 10.0 mi Calm Calm - N/A   Overcast
7:31 PM 32.0 °F - 26.6 °F 80% 29.61 in 10.0 mi Calm Calm - N/A   Overcast
7:51 PM 32.0 °F - 26.6 °F 80% 29.61 in 10.0 mi Calm Calm - N/A Snow Light Snow
8:11 PM 32.0 °F - 26.6 °F 80% 29.61 in 10.0 mi Calm Calm - N/A Snow Light Snow
8:31 PM 32.0 °F - 26.6 °F 80% 29.61 in 10.0 mi Calm Calm - N/A   Overcast
8:51 PM 32.0 °F - 26.6 °F 80% 29.62 in 10.0 mi Calm Calm - N/A   Overcast
9:11 PM 32.0 °F - 26.6 °F 80% 29.62 in 10.0 mi Calm Calm - N/A   Overcast
9:32 PM 32.0 °F - 26.6 °F 80% 29.62 in 10.0 mi Calm Calm - N/A   Overcast
9:51 PM 32.0 °F - 26.6 °F 80% 29.63 in 10.0 mi Calm Calm - N/A   Overcast
10:11 PM 32.0 °F - 26.6 °F 80% 29.63 in 10.0 mi Calm Calm - N/A   Overcast
10:32 PM 32.0 °F - 28.4 °F 87% 29.63 in 10.0 mi Calm Calm - N/A   Overcast
10:51 PM 33.8 °F - 28.4 °F 81% 29.63 in 10.0 mi Calm Calm - N/A   Overcast
11:11 PM 33.8 °F - 28.4 °F 81% 29.63 in 10.0 mi Calm Calm - N/A   Overcast
11:32 PM 33.8 °F 30.8 °F 28.4 °F 81% 29.63 in 10.0 mi NW 3.5 mph - N/A   Overcast
11:51 PM 33.8 °F 30.8 °F 28.4 °F 81% 29.63 in 10.0 mi NW 3.5 mph - N/A   Overcast